Grant County, OR

7:04 AM PDT on September 16, 2019 (GMT -0700)
Grant County Regional

Weather History for KGCD - May, 2019

Change the Weather History Date:

Thursday, May 30, 2019

  Actual Average (KBNO) Record (KBNO)
Temperature  
Mean Temperature 61 °F -  
Max Temperature 70 °F 68 °F 94 °F (1986)
Min Temperature 52 °F 37 °F 26 °F (1985)
Degree Days  
Heating Degree Days 4    
Growing Degree Days 11 (Base 50)    
Moisture  
Dew Point 50 °F    
Average Humidity 70    
Maximum Humidity 88    
Minimum Humidity 47    
Precipitation  
Precipitation 0.01 in - - ()
Sea Level Pressure  
Sea Level Pressure 30.00 in    
Wind  
Wind Speed 5 mph (SW)    
Max Wind Speed 15 mph    
Max Gust Speed 18 mph    
Visibility 10 miles    
Events Rain , Thunderstorm    
Averages and records for this station are not official NWS values.
T = Trace of Precipitation, MM = Missing Value Source: NWS Daily Summary

Daily Weather History Graph

Daily Weather History Graph

Search for Another Location

Airport or City:

Astronomy

May. 30, 2019 Rise Set
Actual Time 5:15 AM PDT 8:31 PM PDT
Civil Twilight 4:40 AM PDT 9:07 PM PDT
Nautical Twilight 3:54 AM PDT 9:53 PM PDT
Astronomical Twilight 2:57 AM PDT 10:50 PM PDT
Moon 3:36 AM PDT (5/30) 4:33 PM PDT (5/30)
Length of Visible Light 16h 26m
Length of Day
15h 15m
Waning Crescent, 14% of the Moon is Illuminated
May 30
Waning Crescent
Jun 3
New
Jun 9
First Quarter
Jun 17
Full
Jun 25
Last Quarter

Hourly Weather History & Observations

Time (PDT) Temp. Dew Point Humidity Pressure Visibility Wind Dir Wind Speed Gust Speed Precip Events Conditions
12:15 AM 54.3 °F 48.6 °F 81% 29.97 in 10.0 mi East 6.9 mph - N/A   Mostly Cloudy
12:35 AM 55.0 °F 48.4 °F 78% 29.97 in 10.0 mi SE 10.4 mph - N/A   Scattered Clouds
12:55 AM 54.5 °F 48.4 °F 80% 29.97 in 10.0 mi SE 6.9 mph - N/A   Mostly Cloudy
1:15 AM 54.5 °F 48.4 °F 80% 29.97 in 10.0 mi SE 4.6 mph - N/A Thunderstorm Overcast
1:35 AM 54.7 °F 48.6 °F 80% 29.97 in 10.0 mi East 6.9 mph - N/A   Overcast
1:55 AM 54.1 °F 48.6 °F 81% 29.97 in 10.0 mi SE 3.5 mph - N/A   Overcast
2:15 AM 54.5 °F 48.2 °F 79% 29.98 in 10.0 mi SE 3.5 mph - N/A   Overcast
2:35 AM 55.9 °F 47.8 °F 74% 29.98 in 10.0 mi SE 9.2 mph - N/A   Overcast
2:55 AM 55.4 °F 48.0 °F 76% 29.98 in 10.0 mi Calm Calm - N/A   Overcast
3:15 AM 54.0 °F 48.0 °F 80% 29.98 in 10.0 mi SE 5.8 mph - N/A   Scattered Clouds
3:35 AM 53.8 °F 48.0 °F 81% 29.99 in 10.0 mi SSE 6.9 mph - N/A   Mostly Cloudy
3:55 AM 53.4 °F 47.5 °F 80% 29.98 in 10.0 mi SE 3.5 mph - N/A   Scattered Clouds
4:15 AM 53.1 °F 47.3 °F 81% 29.98 in 10.0 mi SSE 3.5 mph - N/A   Scattered Clouds
4:35 AM 53.1 °F 47.5 °F 81% 29.97 in 10.0 mi Calm Calm - N/A Thunderstorm Scattered Clouds
4:55 AM 53.1 °F 47.5 °F 81% 29.98 in 10.0 mi ESE 4.6 mph - N/A   Mostly Cloudy
5:15 AM 52.7 °F 47.5 °F 82% 29.98 in 10.0 mi ESE 4.6 mph - N/A   Mostly Cloudy
5:35 AM 53.1 °F 47.5 °F 81% 29.99 in 10.0 mi ESE 4.6 mph - N/A   Mostly Cloudy
5:55 AM 53.1 °F 47.7 °F 82% 29.99 in 10.0 mi ESE 4.6 mph - N/A   Overcast
6:15 AM 53.1 °F 47.7 °F 82% 30.00 in 10.0 mi East 5.8 mph - N/A   Overcast
6:35 AM 53.1 °F 48.7 °F 85% 30.00 in 10.0 mi ESE 4.6 mph - N/A Rain Rain
6:55 AM 53.6 °F 49.1 °F 85% 30.00 in 10.0 mi Calm Calm - N/A   Overcast
7:15 AM 54.7 °F 48.9 °F 81% 30.00 in 10.0 mi Calm Calm - N/A   Overcast
7:35 AM 57.4 °F 50.0 °F 76% 30.00 in 10.0 mi Calm Calm - N/A   Mostly Cloudy
7:55 AM 57.2 °F 51.1 °F 80% 30.00 in 10.0 mi Calm Calm - N/A   Overcast
8:15 AM 58.3 °F 50.4 °F 75% 30.00 in 10.0 mi Calm Calm - N/A   Overcast
8:35 AM 58.5 °F 50.7 °F 75% 30.01 in 10.0 mi Calm Calm - N/A   Overcast
8:55 AM 59.9 °F 52.0 °F 75% 30.01 in 10.0 mi NW 4.6 mph - N/A   Overcast
9:15 AM 59.5 °F 52.2 °F 77% 30.01 in 10.0 mi WNW 6.9 mph - N/A   Overcast
9:35 AM 58.1 °F 52.0 °F 80% 30.02 in 10.0 mi West 5.8 mph - N/A   Overcast
9:55 AM 57.4 °F 50.0 °F 76% 30.02 in 10.0 mi West 4.6 mph - N/A   Overcast
10:15 AM 57.2 °F 50.7 °F 79% 30.03 in 10.0 mi WNW 4.6 mph - N/A Rain Light Rain
10:35 AM 57.7 °F 53.4 °F 85% 30.03 in 10.0 mi NW 5.8 mph - 0.01 in Rain Light Rain
10:55 AM 58.6 °F 53.6 °F 83% 30.03 in 10.0 mi NW 3.5 mph - 0.01 in   Scattered Clouds
11:15 AM 59.5 °F 50.9 °F 73% 30.03 in 10.0 mi Calm Calm - N/A   Scattered Clouds
11:35 AM 59.5 °F 50.4 °F 72% 30.03 in 10.0 mi Calm Calm - N/A   Light Drizzle
11:55 AM 60.3 °F 50.9 °F 71% 30.03 in 10.0 mi Calm Calm - N/A   Overcast
12:15 PM 62.6 °F 50.7 °F 65% 30.03 in 10.0 mi NW 3.5 mph - N/A Thunderstorm Scattered Clouds
12:35 PM 63.5 °F 51.1 °F 64% 30.02 in 10.0 mi Calm Calm - N/A   Scattered Clouds
12:55 PM 66.2 °F 50.2 °F 56% 30.01 in 10.0 mi North 3.5 mph - N/A   Scattered Clouds
1:15 PM 67.3 °F 47.7 °F 49% 30.01 in 10.0 mi Calm Calm - N/A Thunderstorm Clear
1:35 PM 68.2 °F 49.3 °F 51% 30.01 in 10.0 mi North 6.9 mph - N/A   Clear
1:55 PM 68.4 °F 47.1 °F 47% 30.01 in 10.0 mi Calm Calm - N/A Thunderstorm Scattered Clouds
2:15 PM 67.1 °F 48.0 °F 50% 30.00 in 10.0 mi South 5.8 mph - N/A   Scattered Clouds
2:35 PM 66.6 °F 49.1 °F 53% 29.99 in 10.0 mi SSE 6.9 mph - N/A   Mostly Cloudy
2:55 PM 65.5 °F 50.5 °F 58% 29.99 in 10.0 mi South 9.2 mph - N/A Rain Light Rain
3:15 PM 65.7 °F 47.8 °F 53% 29.99 in 10.0 mi SSW 5.8 mph - N/A   Overcast
3:35 PM 68.9 °F 49.5 °F 50% 29.98 in 10.0 mi WSW 3.5 mph - N/A   Scattered Clouds
3:55 PM 69.1 °F 50.2 °F 51% 29.99 in 10.0 mi WNW 8.1 mph - N/A   Mostly Cloudy
4:15 PM 69.1 °F 49.8 °F 50% 29.99 in 10.0 mi WNW 9.2 mph - N/A Thunderstorm Scattered Clouds
4:35 PM 70.5 °F 50.4 °F 49% 29.99 in 10.0 mi WNW 15.0 mph 18.4 mph N/A   Mostly Cloudy
4:55 PM 68.5 °F 49.5 °F 50% 29.99 in 10.0 mi WNW 10.4 mph - N/A Thunderstorm Scattered Clouds
5:15 PM 68.2 °F 50.9 °F 54% 29.99 in 10.0 mi West 9.2 mph - N/A   Clear
5:35 PM 68.0 °F 52.5 °F 58% 29.98 in 10.0 mi West 11.5 mph - N/A   Clear
5:55 PM 68.5 °F 52.2 °F 56% 29.99 in 10.0 mi West 8.1 mph - N/A   Scattered Clouds
6:15 PM 69.1 °F 52.5 °F 55% 29.98 in 10.0 mi West 8.1 mph - N/A   Mostly Cloudy
6:35 PM 66.4 °F 51.8 °F 59% 29.98 in 10.0 mi West 8.1 mph - N/A   Scattered Clouds
6:55 PM 65.8 °F 52.7 °F 62% 29.99 in 10.0 mi West 5.8 mph - N/A   Clear
7:15 PM 66.4 °F 52.2 °F 60% 29.99 in 10.0 mi West 5.8 mph - N/A   Clear
7:35 PM 65.7 °F 52.5 °F 62% 29.99 in 10.0 mi NW 5.8 mph - N/A   Clear
7:55 PM 63.9 °F 52.2 °F 66% 30.00 in 10.0 mi WNW 6.9 mph - N/A   Scattered Clouds
8:15 PM 62.8 °F 52.2 °F 68% 30.00 in 10.0 mi West 4.6 mph - N/A   Scattered Clouds
8:35 PM 61.3 °F 51.8 °F 71% 30.01 in 10.0 mi West 5.8 mph - N/A   Clear
8:55 PM 60.4 °F 51.8 °F 73% 30.02 in 10.0 mi WSW 3.5 mph - N/A Thunderstorm Clear
9:15 PM 59.2 °F 51.6 °F 76% 30.03 in 10.0 mi WSW 5.8 mph - N/A   Scattered Clouds
9:35 PM 59.2 °F 51.1 °F 74% 30.03 in 10.0 mi WSW 6.9 mph - N/A   Mostly Cloudy
9:55 PM 59.9 °F 50.5 °F 71% 30.04 in 10.0 mi West 5.8 mph - N/A   Mostly Cloudy
10:15 PM 58.8 °F 50.4 °F 73% 30.04 in 10.0 mi West 4.6 mph - N/A   Scattered Clouds
10:35 PM 57.9 °F 50.4 °F 76% 30.04 in 10.0 mi WSW 4.6 mph - N/A   Clear
10:55 PM 57.9 °F 50.5 °F 76% 30.05 in 10.0 mi Calm Calm - N/A   Clear
11:15 PM 58.5 °F 50.5 °F 75% 30.05 in 10.0 mi Calm Calm - N/A   Clear
11:35 PM 58.1 °F 50.5 °F 76% 30.05 in 10.0 mi Calm Calm - N/A   Clear
11:55 PM 55.4 °F 51.8 °F 88% 30.06 in 10.0 mi East 5.8 mph - N/A   Clear